owner,sensor,date,latitude,longitude,sea_surface_height_above_sea_level,qcFlag 
COMPS,ioos:station:USF.COMPS:SHP:1,2017-04-01T00:00:00Z,30.0600,-84.2910,-9.74,1111122 
COMPS,ioos:station:USF.COMPS:SHP:1,2017-04-01T00:06:00Z,30.0600,-84.2910,-9.765,1111122 
COMPS,ioos:station:USF.COMPS:SHP:1,2017-04-01T00:12:00Z,30.0600,-84.2910,-9.797,1111122 
COMPS,ioos:station:USF.COMPS:SHP:1,2017-04-01T00:18:00Z,30.0600,-84.2910,-9.824,1111122 
COMPS,ioos:station:USF.COMPS:SHP:1,2017-04-01T00:24:00Z,30.0600,-84.2910,-9.853,1111122 
COMPS,ioos:station:USF.COMPS:SHP:1,2017-04-01T00:30:00Z,30.0600,-84.2910,-9.889,1111122 
COMPS,ioos:station:USF.COMPS:SHP:1,2017-04-01T00:36:00Z,30.0600,-84.2910,-9.923,1111122 
COMPS,ioos:station:USF.COMPS:SHP:1,2017-04-01T00:42:00Z,30.0600,-84.2910,-9.957,1111122 
COMPS,ioos:station:USF.COMPS:SHP:1,2017-04-01T00:48:00Z,30.0600,-84.2910,-9.986,1111122 
COMPS,ioos:station:USF.COMPS:SHP:1,2017-04-01T07:30:00Z,30.0600,-84.2910,-9.995,1111122 
COMPS,ioos:station:USF.COMPS:SHP:1,2017-04-01T07:36:00Z,30.0600,-84.2910,-9.971,1111122 
COMPS,ioos:station:USF.COMPS:SHP:1,2017-04-01T07:42:00Z,30.0600,-84.2910,-9.95,1111122 
COMPS,ioos:station:USF.COMPS:SHP:1,2017-04-01T07:48:00Z,30.0600,-84.2910,-9.929,1111122 
COMPS,ioos:station:USF.COMPS:SHP:1,2017-04-01T07:54:00Z,30.0600,-84.2910,-9.902,1111122 
COMPS,ioos:station:USF.COMPS:SHP:1,2017-04-01T08:00:00Z,30.0600,-84.2910,-9.877,1111122 
COMPS,ioos:station:USF.COMPS:SHP:1,2017-04-01T08:06:00Z,30.0600,-84.2910,-9.861,1111122 
COMPS,ioos:station:USF.COMPS:SHP:1,2017-04-01T08:12:00Z,30.0600,-84.2910,-9.845,1111122 
COMPS,ioos:station:USF.COMPS:SHP:1,2017-04-01T08:18:00Z,30.0600,-84.2910,-9.821,1111122 
COMPS,ioos:station:USF.COMPS:SHP:1,2017-04-01T08:24:00Z,30.0600,-84.2910,-9.798,1111122 
COMPS,ioos:station:USF.COMPS:SHP:1,2017-04-01T08:30:00Z,30.0600,-84.2910,-9.778,1111122 
COMPS,ioos:station:USF.COMPS:SHP:1,2017-04-01T08:36:00Z,30.0600,-84.2910,-9.758,1111122 
COMPS,ioos:station:USF.COMPS:SHP:1,2017-04-01T08:42:00Z,30.0600,-84.2910,-9.739,1111122 
COMPS,ioos:station:USF.COMPS:SHP:1,2017-04-01T08:48:00Z,30.0600,-84.2910,-9.725,1111122 
COMPS,ioos:station:USF.COMPS:SHP:1,2017-04-01T08:54:00Z,30.0600,-84.2910,-9.71,1111122 
COMPS,ioos:station:USF.COMPS:SHP:1,2017-04-01T09:00:00Z,30.0600,-84.2910,-9.699,1111122 
COMPS,ioos:station:USF.COMPS:SHP:1,2017-04-01T09:06:00Z,30.0600,-84.2910,-9.681,1111122 
COMPS,ioos:station:USF.COMPS:SHP:1,2017-04-01T09:12:00Z,30.0600,-84.2910,-9.663,1111122 
COMPS,ioos:station:USF.COMPS:SHP:1,2017-04-01T09:18:00Z,30.0600,-84.2910,-9.646,1111122 
COMPS,ioos:station:USF.COMPS:SHP:1,2017-04-01T09:24:00Z,30.0600,-84.2910,-9.629,1111122 
COMPS,ioos:station:USF.COMPS:SHP:1,2017-04-01T09:30:00Z,30.0600,-84.2910,-9.619,1111122 
COMPS,ioos:station:USF.COMPS:SHP:1,2017-04-01T09:36:00Z,30.0600,-84.2910,-9.612,1111122 
COMPS,ioos:station:USF.COMPS:SHP:1,2017-04-01T09:42:00Z,30.0600,-84.2910,-9.6,1111122 
COMPS,ioos:station:USF.COMPS:SHP:1,2017-04-01T09:48:00Z,30.0600,-84.2910,-9.585,1111122 
COMPS,ioos:station:USF.COMPS:SHP:1,2017-04-01T09:54:00Z,30.0600,-84.2910,-9.574,1111122 
COMPS,ioos:station:USF.COMPS:SHP:1,2017-04-01T10:00:00Z,30.0600,-84.2910,-9.559,1111122 
COMPS,ioos:station:USF.COMPS:SHP:1,2017-04-01T10:06:00Z,30.0600,-84.2910,-9.555,1111122 
COMPS,ioos:station:USF.COMPS:SHP:1,2017-04-01T10:12:00Z,30.0600,-84.2910,-9.554,1111122 
COMPS,ioos:station:USF.COMPS:SHP:1,2017-04-01T10:18:00Z,30.0600,-84.2910,-9.545,1111122 
COMPS,ioos:station:USF.COMPS:SHP:1,2017-04-01T10:24:00Z,30.0600,-84.2910,-9.541,1111122 
COMPS,ioos:station:USF.COMPS:SHP:1,2017-04-01T10:30:00Z,30.0600,-84.2910,-9.539,1111122 
COMPS,ioos:station:USF.COMPS:SHP:1,2017-04-01T10:36:00Z,30.0600,-84.2910,-9.545,1111122 
COMPS,ioos:station:USF.COMPS:SHP:1,2017-04-01T10:42:00Z,30.0600,-84.2910,-9.549,1111122 
COMPS,ioos:station:USF.COMPS:SHP:1,2017-04-01T10:48:00Z,30.0600,-84.2910,-9.543,1111122 
COMPS,ioos:station:USF.COMPS:SHP:1,2017-04-01T10:54:00Z,30.0600,-84.2910,-9.538,1111122 
COMPS,ioos:station:USF.COMPS:SHP:1,2017-04-01T11:00:00Z,30.0600,-84.2910,-9.543,1111122 
COMPS,ioos:station:USF.COMPS:SHP:1,2017-04-01T11:06:00Z,30.0600,-84.2910,-9.559,1111122 
COMPS,ioos:station:USF.COMPS:SHP:1,2017-04-01T11:12:00Z,30.0600,-84.2910,-9.57,1111122 
COMPS,ioos:station:USF.COMPS:SHP:1,2017-04-01T11:18:00Z,30.0600,-84.2910,-9.579,1111122 
COMPS,ioos:station:USF.COMPS:SHP:1,2017-04-01T11:24:00Z,30.0600,-84.2910,-9.587,1111122 
COMPS,ioos:station:USF.COMPS:SHP:1,2017-04-01T11:30:00Z,30.0600,-84.2910,-9.583,1111122 
COMPS,ioos:station:USF.COMPS:SHP:1,2017-04-01T11:36:00Z,30.0600,-84.2910,-9.589,1111122 
COMPS,ioos:station:USF.COMPS:SHP:1,2017-04-01T11:42:00Z,30.0600,-84.2910,-9.614,1111122 
COMPS,ioos:station:USF.COMPS:SHP:1,2017-04-01T11:48:00Z,30.0600,-84.2910,-9.627,1111122 
COMPS,ioos:station:USF.COMPS:SHP:1,2017-04-01T11:54:00Z,30.0600,-84.2910,-9.637,1111122 
COMPS,ioos:station:USF.COMPS:SHP:1,2017-04-01T12:00:00Z,30.0600,-84.2910,-9.659,1111122 
COMPS,ioos:station:USF.COMPS:SHP:1,2017-04-01T12:06:00Z,30.0600,-84.2910,-9.675,1111122 
COMPS,ioos:station:USF.COMPS:SHP:1,2017-04-01T12:12:00Z,30.0600,-84.2910,-9.675,1111122 
COMPS,ioos:station:USF.COMPS:SHP:1,2017-04-01T12:18:00Z,30.0600,-84.2910,-9.689,1111122 
COMPS,ioos:station:USF.COMPS:SHP:1,2017-04-01T12:24:00Z,30.0600,-84.2910,-9.713,1111122 
COMPS,ioos:station:USF.COMPS:SHP:1,2017-04-01T12:30:00Z,30.0600,-84.2910,-9.726,1111122 
COMPS,ioos:station:USF.COMPS:SHP:1,2017-04-01T12:36:00Z,30.0600,-84.2910,-9.742,1111122 
COMPS,ioos:station:USF.COMPS:SHP:1,2017-04-01T12:42:00Z,30.0600,-84.2910,-9.764,1111122 
COMPS,ioos:station:USF.COMPS:SHP:1,2017-04-01T12:48:00Z,30.0600,-84.2910,-9.785,1111122 
COMPS,ioos:station:USF.COMPS:SHP:1,2017-04-01T12:54:00Z,30.0600,-84.2910,-9.799,1111122 
COMPS,ioos:station:USF.COMPS:SHP:1,2017-04-01T13:00:00Z,30.0600,-84.2910,-9.819,1111122 
COMPS,ioos:station:USF.COMPS:SHP:1,2017-04-01T13:06:00Z,30.0600,-84.2910,-9.835,1111122 
COMPS,ioos:station:USF.COMPS:SHP:1,2017-04-01T13:12:00Z,30.0600,-84.2910,-9.848,1111122 
COMPS,ioos:station:USF.COMPS:SHP:1,2017-04-01T13:18:00Z,30.0600,-84.2910,-9.863,1111122 
COMPS,ioos:station:USF.COMPS:SHP:1,2017-04-01T13:24:00Z,30.0600,-84.2910,-9.883,1111122 
COMPS,ioos:station:USF.COMPS:SHP:1,2017-04-01T13:30:00Z,30.0600,-84.2910,-9.899,1111122 
COMPS,ioos:station:USF.COMPS:SHP:1,2017-04-01T13:36:00Z,30.0600,-84.2910,-9.915,1111122 
COMPS,ioos:station:USF.COMPS:SHP:1,2017-04-01T13:42:00Z,30.0600,-84.2910,-9.934,1111122 
COMPS,ioos:station:USF.COMPS:SHP:1,2017-04-01T13:48:00Z,30.0600,-84.2910,-9.947,1111122 
COMPS,ioos:station:USF.COMPS:SHP:1,2017-04-01T13:54:00Z,30.0600,-84.2910,-9.961,1111122 
COMPS,ioos:station:USF.COMPS:SHP:1,2017-04-01T14:00:00Z,30.0600,-84.2910,-9.976,1111122 
COMPS,ioos:station:USF.COMPS:SHP:1,2017-04-01T14:06:00Z,30.0600,-84.2910,-9.994,1111122 
COMPS,ioos:station:USF.COMPS:SHP:1,2017-04-01T17:30:00Z,30.0600,-84.2910,-9.999,1111122 
COMPS,ioos:station:USF.COMPS:SHP:1,2017-04-01T17:36:00Z,30.0600,-84.2910,-9.979,1111122 
COMPS,ioos:station:USF.COMPS:SHP:1,2017-04-01T17:42:00Z,30.0600,-84.2910,-9.961,1111122 
COMPS,ioos:station:USF.COMPS:SHP:1,2017-04-01T17:48:00Z,30.0600,-84.2910,-9.949,1111122 
COMPS,ioos:station:USF.COMPS:SHP:1,2017-04-01T17:54:00Z,30.0600,-84.2910,-9.937,1111122 
COMPS,ioos:station:USF.COMPS:SHP:1,2017-04-01T18:00:00Z,30.0600,-84.2910,-9.92,1111122 
COMPS,ioos:station:USF.COMPS:SHP:1,2017-04-01T18:06:00Z,30.0600,-84.2910,-9.908,1111122 
COMPS,ioos:station:USF.COMPS:SHP:1,2017-04-01T18:12:00Z,30.0600,-84.2910,-9.891,1111122 
COMPS,ioos:station:USF.COMPS:SHP:1,2017-04-01T18:18:00Z,30.0600,-84.2910,-9.871,1111122 
COMPS,ioos:station:USF.COMPS:SHP:1,2017-04-01T18:24:00Z,30.0600,-84.2910,-9.853,1111122 
COMPS,ioos:station:USF.COMPS:SHP:1,2017-04-01T18:30:00Z,30.0600,-84.2910,-9.835,1111122 
COMPS,ioos:station:USF.COMPS:SHP:1,2017-04-01T18:36:00Z,30.0600,-84.2910,-9.824,1111122 
COMPS,ioos:station:USF.COMPS:SHP:1,2017-04-01T18:42:00Z,30.0600,-84.2910,-9.81,1111122 
COMPS,ioos:station:USF.COMPS:SHP:1,2017-04-01T18:48:00Z,30.0600,-84.2910,-9.788,1111122 
COMPS,ioos:station:USF.COMPS:SHP:1,2017-04-01T18:54:00Z,30.0600,-84.2910,-9.767,1111122 
COMPS,ioos:station:USF.COMPS:SHP:1,2017-04-01T19:00:00Z,30.0600,-84.2910,-9.748,1111122 
COMPS,ioos:station:USF.COMPS:SHP:1,2017-04-01T19:06:00Z,30.0600,-84.2910,-9.734,1111122 
COMPS,ioos:station:USF.COMPS:SHP:1,2017-04-01T19:12:00Z,30.0600,-84.2910,-9.712,1111122 
COMPS,ioos:station:USF.COMPS:SHP:1,2017-04-01T19:18:00Z,30.0600,-84.2910,-9.689,1111122 
COMPS,ioos:station:USF.COMPS:SHP:1,2017-04-01T19:24:00Z,30.0600,-84.2910,-9.667,1111122 
COMPS,ioos:station:USF.COMPS:SHP:1,2017-04-01T19:30:00Z,30.0600,-84.2910,-9.651,1111122 
COMPS,ioos:station:USF.COMPS:SHP:1,2017-04-01T19:36:00Z,30.0600,-84.2910,-9.639,1111122 
COMPS,ioos:station:USF.COMPS:SHP:1,2017-04-01T19:42:00Z,30.0600,-84.2910,-9.623,1111122 
COMPS,ioos:station:USF.COMPS:SHP:1,2017-04-01T19:48:00Z,30.0600,-84.2910,-9.609,1111122 
COMPS,ioos:station:USF.COMPS:SHP:1,2017-04-01T19:54:00Z,30.0600,-84.2910,-9.591,1111122 
COMPS,ioos:station:USF.COMPS:SHP:1,2017-04-01T20:00:00Z,30.0600,-84.2910,-9.574,1111122 
COMPS,ioos:station:USF.COMPS:SHP:1,2017-04-01T20:06:00Z,30.0600,-84.2910,-9.559,1111122 
COMPS,ioos:station:USF.COMPS:SHP:1,2017-04-01T20:12:00Z,30.0600,-84.2910,-9.552,1111122 
COMPS,ioos:station:USF.COMPS:SHP:1,2017-04-01T20:18:00Z,30.0600,-84.2910,-9.538,1111122 
COMPS,ioos:station:USF.COMPS:SHP:1,2017-04-01T20:24:00Z,30.0600,-84.2910,-9.523,1111122 
COMPS,ioos:station:USF.COMPS:SHP:1,2017-04-01T20:30:00Z,30.0600,-84.2910,-9.517,1111122 
COMPS,ioos:station:USF.COMPS:SHP:1,2017-04-01T20:36:00Z,30.0600,-84.2910,-9.509,1111122 
COMPS,ioos:station:USF.COMPS:SHP:1,2017-04-01T20:42:00Z,30.0600,-84.2910,-9.499,1111122 
COMPS,ioos:station:USF.COMPS:SHP:1,2017-04-01T20:48:00Z,30.0600,-84.2910,-9.492,1111122 
COMPS,ioos:station:USF.COMPS:SHP:1,2017-04-01T20:54:00Z,30.0600,-84.2910,-9.485,1111122 
COMPS,ioos:station:USF.COMPS:SHP:1,2017-04-01T21:00:00Z,30.0600,-84.2910,-9.479,1111122 
COMPS,ioos:station:USF.COMPS:SHP:1,2017-04-01T21:06:00Z,30.0600,-84.2910,-9.478,1111122 
COMPS,ioos:station:USF.COMPS:SHP:1,2017-04-01T21:12:00Z,30.0600,-84.2910,-9.479,1111122 
COMPS,ioos:station:USF.COMPS:SHP:1,2017-04-01T21:18:00Z,30.0600,-84.2910,-9.474,1111122 
COMPS,ioos:station:USF.COMPS:SHP:1,2017-04-01T21:24:00Z,30.0600,-84.2910,-9.473,1111122 
COMPS,ioos:station:USF.COMPS:SHP:1,2017-04-01T21:30:00Z,30.0600,-84.2910,-9.479,1111122 
COMPS,ioos:station:USF.COMPS:SHP:1,2017-04-01T21:36:00Z,30.0600,-84.2910,-9.473,1111122 
COMPS,ioos:station:USF.COMPS:SHP:1,2017-04-01T21:42:00Z,30.0600,-84.2910,-9.467,1111122 
COMPS,ioos:station:USF.COMPS:SHP:1,2017-04-01T21:48:00Z,30.0600,-84.2910,-9.477,1111122 
COMPS,ioos:station:USF.COMPS:SHP:1,2017-04-01T21:54:00Z,30.0600,-84.2910,-9.478,1111122 
COMPS,ioos:station:USF.COMPS:SHP:1,2017-04-01T22:00:00Z,30.0600,-84.2910,-9.467,1111122 
COMPS,ioos:station:USF.COMPS:SHP:1,2017-04-01T22:06:00Z,30.0600,-84.2910,-9.475,1111122 
COMPS,ioos:station:USF.COMPS:SHP:1,2017-04-01T22:12:00Z,30.0600,-84.2910,-9.484,1111122 
COMPS,ioos:station:USF.COMPS:SHP:1,2017-04-01T22:18:00Z,30.0600,-84.2910,-9.478,1111122 
COMPS,ioos:station:USF.COMPS:SHP:1,2017-04-01T22:24:00Z,30.0600,-84.2910,-9.486,1111122 
COMPS,ioos:station:USF.COMPS:SHP:1,2017-04-01T22:30:00Z,30.0600,-84.2910,-9.492,1111122 
COMPS,ioos:station:USF.COMPS:SHP:1,2017-04-01T22:36:00Z,30.0600,-84.2910,-9.495,1111122 
COMPS,ioos:station:USF.COMPS:SHP:1,2017-04-01T22:42:00Z,30.0600,-84.2910,-9.505,1111122 
COMPS,ioos:station:USF.COMPS:SHP:1,2017-04-01T22:48:00Z,30.0600,-84.2910,-9.519,1111122 
COMPS,ioos:station:USF.COMPS:SHP:1,2017-04-01T22:54:00Z,30.0600,-84.2910,-9.532,1111122 
COMPS,ioos:station:USF.COMPS:SHP:1,2017-04-01T23:00:00Z,30.0600,-84.2910,-9.546,1111122 
COMPS,ioos:station:USF.COMPS:SHP:1,2017-04-01T23:06:00Z,30.0600,-84.2910,-9.561,1111122 
COMPS,ioos:station:USF.COMPS:SHP:1,2017-04-01T23:12:00Z,30.0600,-84.2910,-9.582,1111122 
COMPS,ioos:station:USF.COMPS:SHP:1,2017-04-01T23:18:00Z,30.0600,-84.2910,-9.603,1111122 
COMPS,ioos:station:USF.COMPS:SHP:1,2017-04-01T23:24:00Z,30.0600,-84.2910,-9.613,1111122 
COMPS,ioos:station:USF.COMPS:SHP:1,2017-04-01T23:30:00Z,30.0600,-84.2910,-9.626,1111122 
COMPS,ioos:station:USF.COMPS:SHP:1,2017-04-01T23:36:00Z,30.0600,-84.2910,-9.65,1111122 
COMPS,ioos:station:USF.COMPS:SHP:1,2017-04-01T23:42:00Z,30.0600,-84.2910,-9.678,1111122 
COMPS,ioos:station:USF.COMPS:SHP:1,2017-04-01T23:48:00Z,30.0600,-84.2910,-9.703,1111122 
COMPS,ioos:station:USF.COMPS:SHP:1,2017-04-01T23:54:00Z,30.0600,-84.2910,-9.723,1111122 
COMPS,ioos:station:USF.COMPS:SHP:1,2017-04-02T00:00:00Z,30.0600,-84.2910,-9.734,1111122 
COMPS,ioos:station:USF.COMPS:SHP:1,2017-04-02T00:06:00Z,30.0600,-84.2910,-9.756,1111122 
COMPS,ioos:station:USF.COMPS:SHP:1,2017-04-02T00:12:00Z,30.0600,-84.2910,-9.781,1111122 
COMPS,ioos:station:USF.COMPS:SHP:1,2017-04-02T00:18:00Z,30.0600,-84.2910,-9.806,1111122 
COMPS,ioos:station:USF.COMPS:SHP:1,2017-04-02T00:24:00Z,30.0600,-84.2910,-9.828,1111122 
COMPS,ioos:station:USF.COMPS:SHP:1,2017-04-02T00:30:00Z,30.0600,-84.2910,-9.852,1111122 
COMPS,ioos:station:USF.COMPS:SHP:1,2017-04-02T00:36:00Z,30.0600,-84.2910,-9.879,1111122 
COMPS,ioos:station:USF.COMPS:SHP:1,2017-04-02T00:42:00Z,30.0600,-84.2910,-9.904,1111122 
COMPS,ioos:station:USF.COMPS:SHP:1,2017-04-02T00:48:00Z,30.0600,-84.2910,-9.925,1111122 
COMPS,ioos:station:USF.COMPS:SHP:1,2017-04-02T00:54:00Z,30.0600,-84.2910,-9.947,1111122 
COMPS,ioos:station:USF.COMPS:SHP:1,2017-04-02T01:00:00Z,30.0600,-84.2910,-9.973,1111122 
COMPS,ioos:station:USF.COMPS:SHP:1,2017-04-02T01:06:00Z,30.0600,-84.2910,-9.998,1111122 
COMPS,ioos:station:USF.COMPS:SHP:1,2017-04-02T09:18:00Z,30.0600,-84.2910,-9.992,1111122 
COMPS,ioos:station:USF.COMPS:SHP:1,2017-04-02T09:24:00Z,30.0600,-84.2910,-9.97,1111122 
COMPS,ioos:station:USF.COMPS:SHP:1,2017-04-02T09:30:00Z,30.0600,-84.2910,-9.948,1111122 
COMPS,ioos:station:USF.COMPS:SHP:1,2017-04-02T09:36:00Z,30.0600,-84.2910,-9.928,1111122 
COMPS,ioos:station:USF.COMPS:SHP:1,2017-04-02T09:42:00Z,30.0600,-84.2910,-9.911,1111122 
COMPS,ioos:station:USF.COMPS:SHP:1,2017-04-02T09:48:00Z,30.0600,-84.2910,-9.898,1111122 
COMPS,ioos:station:USF.COMPS:SHP:1,2017-04-02T09:54:00Z,30.0600,-84.2910,-9.88,1111122 
COMPS,ioos:station:USF.COMPS:SHP:1,2017-04-02T10:00:00Z,30.0600,-84.2910,-9.858,1111122 
COMPS,ioos:station:USF.COMPS:SHP:1,2017-04-02T10:06:00Z,30.0600,-84.2910,-9.842,1111122 
COMPS,ioos:station:USF.COMPS:SHP:1,2017-04-02T10:12:00Z,30.0600,-84.2910,-9.828,1111122 
COMPS,ioos:station:USF.COMPS:SHP:1,2017-04-02T10:18:00Z,30.0600,-84.2910,-9.814,1111122 
COMPS,ioos:station:USF.COMPS:SHP:1,2017-04-02T10:24:00Z,30.0600,-84.2910,-9.797,1111122 
COMPS,ioos:station:USF.COMPS:SHP:1,2017-04-02T10:30:00Z,30.0600,-84.2910,-9.781,1111122 
COMPS,ioos:station:USF.COMPS:SHP:1,2017-04-02T10:36:00Z,30.0600,-84.2910,-9.774,1111122 
COMPS,ioos:station:USF.COMPS:SHP:1,2017-04-02T10:42:00Z,30.0600,-84.2910,-9.766,1111122 
COMPS,ioos:station:USF.COMPS:SHP:1,2017-04-02T10:48:00Z,30.0600,-84.2910,-9.752,1111122 
COMPS,ioos:station:USF.COMPS:SHP:1,2017-04-02T10:54:00Z,30.0600,-84.2910,-9.74,1111122 
COMPS,ioos:station:USF.COMPS:SHP:1,2017-04-02T11:00:00Z,30.0600,-84.2910,-9.731,1111122 
COMPS,ioos:station:USF.COMPS:SHP:1,2017-04-02T11:06:00Z,30.0600,-84.2910,-9.722,1111122 
COMPS,ioos:station:USF.COMPS:SHP:1,2017-04-02T11:12:00Z,30.0600,-84.2910,-9.713,1111122 
COMPS,ioos:station:USF.COMPS:SHP:1,2017-04-02T11:18:00Z,30.0600,-84.2910,-9.705,1111122 
COMPS,ioos:station:USF.COMPS:SHP:1,2017-04-02T11:24:00Z,30.0600,-84.2910,-9.702,1111122 
COMPS,ioos:station:USF.COMPS:SHP:1,2017-04-02T11:30:00Z,30.0600,-84.2910,-9.703,1111122 
COMPS,ioos:station:USF.COMPS:SHP:1,2017-04-02T11:36:00Z,30.0600,-84.2910,-9.699,1111122 
COMPS,ioos:station:USF.COMPS:SHP:1,2017-04-02T11:42:00Z,30.0600,-84.2910,-9.694,1111122 
COMPS,ioos:station:USF.COMPS:SHP:1,2017-04-02T11:48:00Z,30.0600,-84.2910,-9.689,1111122 
COMPS,ioos:station:USF.COMPS:SHP:1,2017-04-02T11:54:00Z,30.0600,-84.2910,-9.687,1111122 
COMPS,ioos:station:USF.COMPS:SHP:1,2017-04-02T12:00:00Z,30.0600,-84.2910,-9.689,1111122 
COMPS,ioos:station:USF.COMPS:SHP:1,2017-04-02T12:06:00Z,30.0600,-84.2910,-9.69,1111122 
COMPS,ioos:station:USF.COMPS:SHP:1,2017-04-02T12:12:00Z,30.0600,-84.2910,-9.691,1111122 
COMPS,ioos:station:USF.COMPS:SHP:1,2017-04-02T12:18:00Z,30.0600,-84.2910,-9.699,1111122 
COMPS,ioos:station:USF.COMPS:SHP:1,2017-04-02T12:24:00Z,30.0600,-84.2910,-9.693,1111122 
COMPS,ioos:station:USF.COMPS:SHP:1,2017-04-02T12:30:00Z,30.0600,-84.2910,-9.694,1111122 
COMPS,ioos:station:USF.COMPS:SHP:1,2017-04-02T12:36:00Z,30.0600,-84.2910,-9.707,1111122 
COMPS,ioos:station:USF.COMPS:SHP:1,2017-04-02T12:42:00Z,30.0600,-84.2910,-9.72,1111122 
COMPS,ioos:station:USF.COMPS:SHP:1,2017-04-02T12:48:00Z,30.0600,-84.2910,-9.725,1111122 
COMPS,ioos:station:USF.COMPS:SHP:1,2017-04-02T12:54:00Z,30.0600,-84.2910,-9.718,1111122 
COMPS,ioos:station:USF.COMPS:SHP:1,2017-04-02T13:00:00Z,30.0600,-84.2910,-9.726,1111122 
COMPS,ioos:station:USF.COMPS:SHP:1,2017-04-02T13:06:00Z,30.0600,-84.2910,-9.742,1111122 
COMPS,ioos:station:USF.COMPS:SHP:1,2017-04-02T13:12:00Z,30.0600,-84.2910,-9.751,1111122 
COMPS,ioos:station:USF.COMPS:SHP:1,2017-04-02T13:18:00Z,30.0600,-84.2910,-9.758,1111122 
COMPS,ioos:station:USF.COMPS:SHP:1,2017-04-02T13:24:00Z,30.0600,-84.2910,-9.773,1111122 
COMPS,ioos:station:USF.COMPS:SHP:1,2017-04-02T13:30:00Z,30.0600,-84.2910,-9.785,1111122 
COMPS,ioos:station:USF.COMPS:SHP:1,2017-04-02T13:36:00Z,30.0600,-84.2910,-9.797,1111122 
COMPS,ioos:station:USF.COMPS:SHP:1,2017-04-02T13:42:00Z,30.0600,-84.2910,-9.813,1111122 
COMPS,ioos:station:USF.COMPS:SHP:1,2017-04-02T13:48:00Z,30.0600,-84.2910,-9.828,1111122 
COMPS,ioos:station:USF.COMPS:SHP:1,2017-04-02T13:54:00Z,30.0600,-84.2910,-9.84,1111122 
COMPS,ioos:station:USF.COMPS:SHP:1,2017-04-02T14:00:00Z,30.0600,-84.2910,-9.844,1111122 
COMPS,ioos:station:USF.COMPS:SHP:1,2017-04-02T14:06:00Z,30.0600,-84.2910,-9.857,1111122 
COMPS,ioos:station:USF.COMPS:SHP:1,2017-04-02T14:12:00Z,30.0600,-84.2910,-9.88,1111122 
COMPS,ioos:station:USF.COMPS:SHP:1,2017-04-02T14:18:00Z,30.0600,-84.2910,-9.899,1111122 
COMPS,ioos:station:USF.COMPS:SHP:1,2017-04-02T14:24:00Z,30.0600,-84.2910,-9.907,1111122 
COMPS,ioos:station:USF.COMPS:SHP:1,2017-04-02T14:30:00Z,30.0600,-84.2910,-9.91,1111122 
COMPS,ioos:station:USF.COMPS:SHP:1,2017-04-02T14:36:00Z,30.0600,-84.2910,-9.923,1111122 
COMPS,ioos:station:USF.COMPS:SHP:1,2017-04-02T14:42:00Z,30.0600,-84.2910,-9.946,1111122 
COMPS,ioos:station:USF.COMPS:SHP:1,2017-04-02T14:48:00Z,30.0600,-84.2910,-9.958,1111122 
COMPS,ioos:station:USF.COMPS:SHP:1,2017-04-02T14:54:00Z,30.0600,-84.2910,-9.966,1111122 
COMPS,ioos:station:USF.COMPS:SHP:1,2017-04-02T15:00:00Z,30.0600,-84.2910,-9.976,1111122 
COMPS,ioos:station:USF.COMPS:SHP:1,2017-04-02T15:06:00Z,30.0600,-84.2910,-9.984,1111122 
COMPS,ioos:station:USF.COMPS:SHP:1,2017-04-02T15:12:00Z,30.0600,-84.2910,-9.991,1111122 
COMPS,ioos:station:USF.COMPS:SHP:1,2017-04-02T15:18:00Z,30.0600,-84.2910,-9.999,1111122 
COMPS,ioos:station:USF.COMPS:SHP:1,2017-04-02T17:54:00Z,30.0600,-84.2910,-9.99,1111122 
COMPS,ioos:station:USF.COMPS:SHP:1,2017-04-02T18:00:00Z,30.0600,-84.2910,-9.98,1111122 
COMPS,ioos:station:USF.COMPS:SHP:1,2017-04-02T18:06:00Z,30.0600,-84.2910,-9.977,1111122 
COMPS,ioos:station:USF.COMPS:SHP:1,2017-04-02T18:12:00Z,30.0600,-84.2910,-9.966,1111122 
COMPS,ioos:station:USF.COMPS:SHP:1,2017-04-02T18:18:00Z,30.0600,-84.2910,-9.949,1111122 
COMPS,ioos:station:USF.COMPS:SHP:1,2017-04-02T18:24:00Z,30.0600,-84.2910,-9.943,1111122 
COMPS,ioos:station:USF.COMPS:SHP:1,2017-04-02T18:30:00Z,30.0600,-84.2910,-9.931,1111122 
COMPS,ioos:station:USF.COMPS:SHP:1,2017-04-02T18:36:00Z,30.0600,-84.2910,-9.921,1111122 
COMPS,ioos:station:USF.COMPS:SHP:1,2017-04-02T18:42:00Z,30.0600,-84.2910,-9.911,1111122 
COMPS,ioos:station:USF.COMPS:SHP:1,2017-04-02T18:48:00Z,30.0600,-84.2910,-9.888,1111122 
COMPS,ioos:station:USF.COMPS:SHP:1,2017-04-02T18:54:00Z,30.0600,-84.2910,-9.869,1111122 
COMPS,ioos:station:USF.COMPS:SHP:1,2017-04-02T19:00:00Z,30.0600,-84.2910,-9.861,1111122 
COMPS,ioos:station:USF.COMPS:SHP:1,2017-04-02T19:06:00Z,30.0600,-84.2910,-9.855,1111122 
COMPS,ioos:station:USF.COMPS:SHP:1,2017-04-02T19:12:00Z,30.0600,-84.2910,-9.842,1111122 
COMPS,ioos:station:USF.COMPS:SHP:1,2017-04-02T19:18:00Z,30.0600,-84.2910,-9.827,1111122 
COMPS,ioos:station:USF.COMPS:SHP:1,2017-04-02T19:24:00Z,30.0600,-84.2910,-9.815,1111122 
COMPS,ioos:station:USF.COMPS:SHP:1,2017-04-02T19:30:00Z,30.0600,-84.2910,-9.801,1111122 
COMPS,ioos:station:USF.COMPS:SHP:1,2017-04-02T19:36:00Z,30.0600,-84.2910,-9.779,1111122 
COMPS,ioos:station:USF.COMPS:SHP:1,2017-04-02T19:42:00Z,30.0600,-84.2910,-9.764,1111122 
COMPS,ioos:station:USF.COMPS:SHP:1,2017-04-02T19:48:00Z,30.0600,-84.2910,-9.756,1111122 
COMPS,ioos:station:USF.COMPS:SHP:1,2017-04-02T19:54:00Z,30.0600,-84.2910,-9.742,1111122 
COMPS,ioos:station:USF.COMPS:SHP:1,2017-04-02T20:00:00Z,30.0600,-84.2910,-9.729,1111122 
COMPS,ioos:station:USF.COMPS:SHP:1,2017-04-02T20:06:00Z,30.0600,-84.2910,-9.723,1111122 
COMPS,ioos:station:USF.COMPS:SHP:1,2017-04-02T20:12:00Z,30.0600,-84.2910,-9.712,1111122 
COMPS,ioos:station:USF.COMPS:SHP:1,2017-04-02T20:18:00Z,30.0600,-84.2910,-9.684,1111122 
COMPS,ioos:station:USF.COMPS:SHP:1,2017-04-02T20:24:00Z,30.0600,-84.2910,-9.665,1111122 
COMPS,ioos:station:USF.COMPS:SHP:1,2017-04-02T20:30:00Z,30.0600,-84.2910,-9.658,1111122 
COMPS,ioos:station:USF.COMPS:SHP:1,2017-04-02T20:36:00Z,30.0600,-84.2910,-9.657,1111122 
COMPS,ioos:station:USF.COMPS:SHP:1,2017-04-02T20:42:00Z,30.0600,-84.2910,-9.647,1111122 
COMPS,ioos:station:USF.COMPS:SHP:1,2017-04-02T20:48:00Z,30.0600,-84.2910,-9.63,1111122 
COMPS,ioos:station:USF.COMPS:SHP:1,2017-04-02T20:54:00Z,30.0600,-84.2910,-9.621,1111122 
COMPS,ioos:station:USF.COMPS:SHP:1,2017-04-02T21:00:00Z,30.0600,-84.2910,-9.61,1111122 
COMPS,ioos:station:USF.COMPS:SHP:1,2017-04-02T21:06:00Z,30.0600,-84.2910,-9.592,1111122 
COMPS,ioos:station:USF.COMPS:SHP:1,2017-04-02T21:12:00Z,30.0600,-84.2910,-9.579,1111122 
COMPS,ioos:station:USF.COMPS:SHP:1,2017-04-02T21:18:00Z,30.0600,-84.2910,-9.572,1111122 
COMPS,ioos:station:USF.COMPS:SHP:1,2017-04-02T21:24:00Z,30.0600,-84.2910,-9.57,1111122 
COMPS,ioos:station:USF.COMPS:SHP:1,2017-04-02T21:30:00Z,30.0600,-84.2910,-9.565,1111122 
COMPS,ioos:station:USF.COMPS:SHP:1,2017-04-02T21:36:00Z,30.0600,-84.2910,-9.559,1111122 
COMPS,ioos:station:USF.COMPS:SHP:1,2017-04-02T21:42:00Z,30.0600,-84.2910,-9.55,1111122 
COMPS,ioos:station:USF.COMPS:SHP:1,2017-04-02T21:48:00Z,30.0600,-84.2910,-9.539,1111122 
COMPS,ioos:station:USF.COMPS:SHP:1,2017-04-02T21:54:00Z,30.0600,-84.2910,-9.535,1111122 
COMPS,ioos:station:USF.COMPS:SHP:1,2017-04-02T22:00:00Z,30.0600,-84.2910,-9.541,1111122 
COMPS,ioos:station:USF.COMPS:SHP:1,2017-04-02T22:06:00Z,30.0600,-84.2910,-9.547,1111122 
COMPS,ioos:station:USF.COMPS:SHP:1,2017-04-02T22:12:00Z,30.0600,-84.2910,-9.537,1111122 
COMPS,ioos:station:USF.COMPS:SHP:1,2017-04-02T22:18:00Z,30.0600,-84.2910,-9.526,1111122 
COMPS,ioos:station:USF.COMPS:SHP:1,2017-04-02T22:24:00Z,30.0600,-84.2910,-9.524,1111122 
COMPS,ioos:station:USF.COMPS:SHP:1,2017-04-02T22:30:00Z,30.0600,-84.2910,-9.531,1111122 
COMPS,ioos:station:USF.COMPS:SHP:1,2017-04-02T22:36:00Z,30.0600,-84.2910,-9.536,1111122 
COMPS,ioos:station:USF.COMPS:SHP:1,2017-04-02T22:42:00Z,30.0600,-84.2910,-9.534,1111122 
COMPS,ioos:station:USF.COMPS:SHP:1,2017-04-02T22:48:00Z,30.0600,-84.2910,-9.535,1111122 
COMPS,ioos:station:USF.COMPS:SHP:1,2017-04-02T22:54:00Z,30.0600,-84.2910,-9.535,1111122 
COMPS,ioos:station:USF.COMPS:SHP:1,2017-04-02T23:00:00Z,30.0600,-84.2910,-9.53,1111122 
COMPS,ioos:station:USF.COMPS:SHP:1,2017-04-02T23:06:00Z,30.0600,-84.2910,-9.535,1111122 
COMPS,ioos:station:USF.COMPS:SHP:1,2017-04-02T23:12:00Z,30.0600,-84.2910,-9.544,1111122 
COMPS,ioos:station:USF.COMPS:SHP:1,2017-04-02T23:18:00Z,30.0600,-84.2910,-9.542,1111122 